YO8KGT-13 Weather Reports


time (UTC)temp
C
wind
direction
speed
KPH
gust
KPH
rain 1hr
cm
rain 24hr
cm
rain mn
cm
humidity
%
barometer
mb
20260510153944 16 22 0.0 0.0 0.00 0.00 0.00 66 944.0
20260510153452 16 22 0.0 0.0 0.00 0.00 0.00 66 944.0
20260510152945 16 22 0.0 0.0 0.00 0.00 0.00 66 944.0
20260510152454 16 22 0.0 91.7 0.00 0.00 0.00 66 944.0
20260510151945 16 22 0.0 91.7 0.00 0.00 0.00 66 944.0
20260510151501 16 22 0.0 91.7 0.00 0.00 0.00 66 944.0
20260510150943 16 22 0.0 0.0 0.00 0.00 0.00 65 944.0
20260510150444 16 22 0.0 0.0 0.00 0.00 0.00 64 944.0
20260510145943 16 22 0.0 3.2 0.00 0.00 0.00 63 944.0
20260510145444 16 22 0.0 3.2 0.00 0.00 0.00 63 945.0
20260510144947 16 22 3.2 3.2 0.00 0.00 0.00 62 945.0
20260510144444 16 22 0.0 0.0 0.00 0.00 0.00 62 945.0
20260510143951 16 22 0.0 0.0 0.00 0.00 0.00 62 945.0
20260510143444 17 22 0.0 91.7 0.00 0.00 0.00 62 945.0
20260510142955 17 22 0.0 91.7 0.00 0.00 0.00 61 945.0
20260510142444 17 22 0.0 91.7 0.00 0.00 0.00 61 945.0
20260510141944 17 22 0.0 3.2 0.00 0.00 0.00 60 945.0
20260510141443 17 22 3.2 4.8 0.00 0.00 0.00 60 945.0
20260510140943 18 22 1.6 4.8 0.00 0.00 0.00 59 945.0
20260510140443 18 22 0.0 6.4 0.00 0.00 0.00 59 944.0
20260510135944 18 22 3.2 91.7 0.00 0.00 0.00 59 944.0
20260510135444 19 22 6.4 91.7 0.00 0.00 0.00 58 944.0
20260510134943 19 315 91.7 91.7 0.00 0.00 0.00 58 944.0
20260510134450 19 22 0.0 91.7 0.00 0.00 0.00 59 944.0
20260510133943 19 22 0.0 91.7 0.00 0.00 0.00 58 945.0
20260510133444 18 315 91.7 91.7 0.00 0.00 0.00 59 945.0
20260510132944 18 22 0.0 6.4 0.00 0.00 0.00 59 945.0
20260510132459 18 22 3.2 6.4 0.00 0.00 0.00 59 944.0
20260510131944 18 22 0.0 8.0 0.00 0.00 0.00 60 945.0
20260510131443 18 22 0.0 8.0 0.00 0.00 0.00 59 945.0
20260510131009 18 22 3.2 8.0 0.00 0.00 0.00 58 945.0
20260510130443 18 22 3.2 9.7 0.00 0.00 0.00 60 945.0
20260510125946 18 22 4.8 9.7 0.00 0.00 0.00 60 945.0
20260510125444 18 22 0.0 9.7 0.00 0.00 0.00 59 945.0
20260510124944 18 0 3.2 3.2 0.00 0.00 0.00 59 945.0
20260510124443 18 315 3.2 8.0 0.00 0.00 0.00 60 945.0
20260510123953 18 45 0.0 8.0 0.00 0.00 0.00 59 945.0
20260510123443 18 45 8.0 11.3 0.00 0.00 0.00 59 945.0
20260510122943 18 45 0.0 11.3 0.00 0.00 0.00 58 945.0
20260510122504 18 45 0.0 11.3 0.00 0.00 0.00 58 945.0
20260510122001 18 45 0.0 4.8 0.00 0.00 0.00 59 945.0
20260510121443 18 45 4.8 4.8 0.00 0.00 0.00 59 945.0
20260510120943 18 45 4.8 4.8 0.00 0.00 0.00 59 945.0
20260510120444 18 45 0.0 6.4 0.00 0.00 0.00 59 945.0
20260510115944 18 45 3.2 9.7 0.00 0.00 0.00 59 945.0
20260510115448 18 45 6.4 9.7 0.00 0.00 0.00 59 945.0
20260510114943 18 45 9.7 9.7 0.00 0.00 0.00 59 945.0
20260510114444 18 45 6.4 9.7 0.00 0.00 0.00 59 945.0
20260510113957 18 45 0.0 9.7 0.00 0.00 0.00 59 946.0
20260510113454 18 45 3.2 9.7 0.00 0.00 0.00 59 946.0
20260510112944 18 45 0.0 4.8 0.00 0.00 0.00 60 946.0
20260510112443 18 45 0.0 6.4 0.00 0.00 0.00 59 946.0
20260510112003 18 45 0.0 12.9 0.00 0.00 0.00 59 946.0
20260510111503 18 45 3.2 12.9 0.00 0.00 0.00 59 946.0
20260510110944 18 45 12.9 12.9 0.00 0.00 0.00 60 946.0
20260510110443 18 45 0.0 8.0 0.00 0.00 0.00 60 946.0
20260510105944 19 45 8.0 8.0 0.00 0.00 0.00 59 946.0
20260510105449 19 45 0.0 6.4 0.00 0.00 0.00 61 946.0
20260510104948 18 45 3.2 6.4 0.00 0.00 0.00 61 946.0
20260510104443 19 45 3.2 6.4 0.00 0.00 0.00 60 946.0
20260510103944 20 45 3.2 6.4 0.00 0.00 0.00 60 946.0
20260510103459 20 45 3.2 6.4 0.00 0.00 0.00 60 946.0
20260510102956 20 45 0.0 8.0 0.00 0.00 0.00 61 946.0
20260510102443 20 22 6.4 8.0 0.00 0.00 0.00 63 946.0
20260510101944 19 45 8.0 8.0 0.00 0.00 0.00 63 946.0
20260510101444 18 45 0.0 3.2 0.00 0.00 0.00 64 946.0
20260510100944 18 45 0.0 3.2 0.00 0.00 0.00 64 946.0
20260510100444 19 45 0.0 3.2 0.00 0.00 0.00 63 946.0
20260510095943 20 45 0.0 4.8 0.00 0.00 0.00 64 946.0
20260510095444 20 45 0.0 9.7 0.00 0.00 0.00 65 946.0
20260510094952 19 45 0.0 9.7 0.00 0.00 0.00 66 947.0
20260510094451 18 45 0.0 9.7 0.00 0.00 0.00 67 947.0
20260510093944 18 45 0.0 8.0 0.00 0.00 0.00 68 947.0
20260510093444 17 45 0.0 8.0 0.00 0.00 0.00 69 947.0
20260510093003 17 45 0.0 8.0 0.00 0.00 0.00 70 947.0
20260510092444 17 45 0.0 3.2 0.00 24.97 0.00 71 947.0
20260510091944 17 45 0.0 6.4 0.00 0.00 0.00 71 947.0
20260510091443 17 45 3.2 8.0 0.00 0.00 0.00 71 947.0
20260510090944 17 22 6.4 8.0 0.00 0.00 0.00 72 947.0
20260510090449 17 22 0.0 6.4 0.00 0.00 0.00 73 947.0
20260510085949 17 22 4.8 8.0 0.00 0.00 0.00 74 947.0
20260510085444 16 22 4.8 9.7 0.00 0.00 0.00 75 947.0
20260510084944 16 22 3.2 9.7 0.00 0.00 0.00 76 947.0
20260510084459 16 45 9.7 9.7 0.00 0.00 0.00 77 947.0
20260510083943 16 22 4.8 4.8 0.00 0.00 0.00 79 947.0
20260510083442 15 22 0.0 6.4 0.00 0.00 0.00 80 947.0
20260510082944 15 22 3.2 8.0 0.00 0.00 0.00 81 947.0
20260510082443 14 22 0.0 8.0 0.00 0.00 0.00 81 947.0
20260510081949 13 22 8.0 8.0 0.00 0.00 0.00 82 947.0
20260510081446 13 22 8.0 8.0 0.00 0.00 0.00 82 947.0
20260510080943 13 22 0.0 3.2 0.00 0.00 0.00 82 947.0
20260510080443 14 22 1.6 1.6 0.00 0.00 0.00 82 947.0
20260510075957 14 22 0.0 0.0 0.00 0.00 0.00 82 947.0
20260510075443 15 22 0.0 3.2 0.00 0.00 0.00 82 947.0
20260510074943 15 22 0.0 3.2 0.00 0.00 0.00 83 947.0
20260510074443 15 22 0.0 3.2 0.00 0.00 0.00 84 947.0
20260510073943 15 22 0.0 6.4 0.00 0.00 0.00 85 947.0
20260510073443 15 0 0.0 8.0 0.00 0.00 0.00 86 947.0
20260510072943 14 22 6.4 8.0 0.00 0.00 0.00 87 947.0
20260510072443 13 0 8.0 8.0 0.00 0.00 0.00 89 947.0
20260510071942 13 0 4.8 4.8 0.00 0.00 0.00 89 947.0
20260510071451 13 0 0.0 4.8 0.00 0.00 0.00 90 947.0
20260510070943 12 0 0.0 4.8 0.00 0.00 0.00 90 947.0
20260510070444 12 0 0.0 0.0 0.00 0.00 0.00 90 947.0
20260510065944 11 0 0.0 0.0 0.00 24.97 0.00 90 947.0
20260510065500 11 0 0.0 3.2 0.00 0.00 0.00 90 947.0
20260510064943 11 0 0.0 3.2 0.00 0.00 0.00 90 947.0
20260510064444 11 0 0.0 3.2 0.00 0.00 0.00 90 947.0
20260510063942 11 0 0.0 3.2 0.00 0.00 0.00 90 947.0
20260510063443 11 0 0.0 3.2 0.00 0.00 0.00 90 947.0
20260510062944 11 0 0.0 6.4 0.00 0.00 0.00 91 947.0
20260510062444 11 0 0.0 6.4 0.00 0.00 0.00 91 947.0
20260510061944 11 0 6.4 8.0 0.00 0.00 0.00 91 947.0
20260510061444 10 0 0.0 8.0 0.00 0.00 0.00 91 948.0
20260510060952 10 0 8.0 8.0 0.00 0.00 0.00 91 947.0
20260510060443 10 0 0.0 6.4 0.00 0.00 0.00 91 947.0
20260510055943 10 0 0.0 6.4 0.00 0.00 0.00 91 947.0
20260510055443 11 0 0.0 0.0 0.00 0.00 0.00 91 947.0
20260510055002 11 0 0.0 4.8 0.00 0.00 0.00 91 947.0
20260510054444 11 0 0.0 4.8 0.00 0.00 0.00 91 948.0
20260510053943 11 0 0.0 4.8 0.00 0.00 0.00 91 948.0
20260510053444 11 0 0.0 4.8 0.00 0.00 0.00 91 947.0
20260510052943 10 0 0.0 4.8 0.00 0.00 0.00 91 947.0
20260510052447 10 0 4.8 4.8 0.00 0.00 0.00 91 947.0
20260510051943 10 0 0.0 1.6 0.00 0.00 0.00 91 947.0
20260510051442 10 0 0.0 1.6 0.00 0.00 0.00 91 947.0
20260510050943 10 0 1.6 1.6 0.00 0.00 0.00 91 947.0
20260510050456 10 0 0.0 1.6 0.00 0.00 0.00 91 947.0
20260510045943 10 0 0.0 4.8 0.00 0.00 0.00 91 947.0
20260510045444 10 0 0.0 4.8 0.00 0.00 0.00 91 947.0
20260510044942 10 0 4.8 4.8 0.00 0.00 0.00 91 947.0
20260510044444 10 0 0.0 3.2 0.00 0.00 0.00 91 947.0
20260510043943 10 0 0.0 3.2 0.00 0.00 0.00 91 947.0
20260510043635 10 0 0.0 3.2 0.00 0.00 0.00 91 947.0
20260510043137 10 0 3.2 3.2 0.00 0.00 0.00 91 947.0
20260510042635 10 0 0.0 3.2 0.00 0.00 0.00 91 947.0
20260510042134 10 270 0.0 3.2 0.00 0.00 0.00 91 947.0
20260510041635 10 338 0.0 4.8 0.00 0.00 0.00 91 947.0
20260510041146 10 338 0.0 6.4 0.00 0.00 0.00 91 947.0
20260510040646 10 338 0.0 6.4 0.00 0.00 0.00 91 947.0
20260510040135 10 0 6.4 6.4 0.00 0.00 0.00 91 947.0
20260510035634 10 0 0.0 4.8 0.00 0.00 0.00 91 947.0
20260510035135 10 0 0.0 4.8 0.00 0.00 0.00 91 947.0
20260510034636 10 0 0.0 4.8 0.00 0.00 0.00 91 947.0
20260510034136 10 0 0.0 1.6 0.00 0.00 0.00 91 947.0
20260510033635 10 0 0.0 1.6 0.00 0.00 0.00 91 947.0
20260510033135 10 0 0.0 3.2 0.00 0.00 0.00 91 947.0
20260510032641 10 0 0.0 4.8 0.00 0.00 0.00 91 947.0
20260510032141 10 0 0.0 4.8 0.00 0.00 0.00 91 947.0
20260510031636 10 0 0.0 4.8 0.00 0.00 0.00 91 947.0
20260510031135 10 0 0.0 4.8 0.00 0.00 0.00 91 947.0
20260510030649 10 22 4.8 8.0 0.00 0.00 0.00 91 947.0
20260510030134 10 22 0.0 8.0 0.00 0.00 0.00 91 947.0
20260510025635 10 0 3.2 8.0 0.00 0.00 0.00 91 947.0
20260510025134 10 0 6.4 6.4 0.00 0.00 0.00 91 947.0
20260510024635 10 0 0.0 6.4 0.00 0.00 0.00 91 947.0
20260510024136 10 0 0.0 6.4 0.00 0.00 0.00 91 947.0
20260510023636 10 0 6.4 6.4 0.00 0.00 0.00 91 947.0
20260510023135 10 0 3.2 4.8 0.00 0.00 0.00 91 947.0
20260510022635 10 0 1.6 4.8 0.00 0.00 0.00 91 947.0
20260510022142 11 0 0.0 0.0 0.00 0.00 0.00 91 947.0
20260510021635 11 0 0.0 4.8 0.00 0.00 0.00 91 947.0
20260510021135 11 0 0.0 4.8 0.00 0.00 0.00 91 947.0
20260510020636 11 0 3.2 4.8 0.00 0.00 0.00 91 947.0
20260510020152 11 0 0.0 3.2 0.00 0.00 0.00 91 947.0
20260510015636 11 0 0.0 0.0 0.00 0.00 0.00 91 947.0
20260510015134 11 0 0.0 3.2 0.00 0.00 0.00 91 947.0
20260510014635 11 0 0.0 3.2 0.00 0.00 0.00 91 947.0
20260510014134 11 0 3.2 4.8 0.00 0.00 0.00 91 947.0
20260510013638 11 0 0.0 4.8 0.00 0.00 0.00 91 947.0
20260510013135 11 0 0.0 4.8 0.00 0.00 0.00 90 947.0
20260510012635 11 0 3.2 3.2 0.00 0.00 0.00 90 947.0
20260510012135 11 0 3.2 4.8 0.00 0.00 0.00 90 947.0
20260510011646 11 0 0.0 4.8 0.00 0.00 0.00 90 947.0
20260510011134 11 45 0.0 4.8 0.00 0.00 0.00 90 947.0
20260510010636 11 45 0.0 4.8 0.00 0.00 0.00 90 947.0
20260510010135 11 45 0.0 1.6 0.00 0.00 0.00 90 947.0
20260510005655 11 45 0.0 1.6 0.00 0.00 0.00 90 947.0
20260510005134 11 45 0.0 1.6 0.00 0.00 0.00 90 947.0
20260510004635 11 45 0.0 0.0 0.00 0.00 0.00 90 947.0
20260510004134 11 45 0.0 0.0 0.00 0.00 0.00 90 947.0
20260510003634 11 45 0.0 3.2 0.00 0.00 0.00 90 947.0
20260510003141 11 45 0.0 3.2 0.00 0.00 0.00 90 947.0
20260510002635 11 45 0.0 3.2 0.00 0.00 0.00 90 947.0
20260510002134 11 45 0.0 3.2 0.00 0.00 0.00 90 947.0
20260510001635 11 45 0.0 3.2 0.00 0.00 0.00 90 947.0
20260510001150 11 45 0.0 0.0 0.00 0.00 0.00 90 947.0
20260510000636 11 45 0.0 0.0 0.00 0.00 0.00 90 947.0
20260510000135 11 45 0.0 0.0 0.00 0.00 0.00 90 947.0
20260509235635 11 45 0.0 0.0 0.00 0.00 0.00 90 947.0
20260509235134 11 0 0.0 0.0 0.00 0.00 0.00 90 947.0
20260509234635 11 45 0.0 0.0 0.00 0.00 0.00 90 947.0
20260509234134 11 45 0.0 0.0 0.00 0.00 0.00 90 947.0
20260509233634 11 45 0.0 0.0 0.00 0.00 0.00 90 947.0
20260509233135 11 45 0.0 0.0 0.00 0.00 0.00 90 947.0
20260509232644 11 45 0.0 0.0 0.00 0.00 0.00 90 947.0
20260509232135 11 45 0.0 0.0 0.00 0.00 0.00 90 947.0
20260509231635 12 45 0.0 0.0 0.00 0.00 0.00 90 947.0
20260509231135 12 45 0.0 0.0 0.00 0.00 0.00 90 947.0
20260509230654 12 45 0.0 0.0 0.00 0.00 0.00 90 947.0
20260509230135 12 45 0.0 8.0 0.00 0.00 0.00 90 947.0
20260509225635 12 45 0.0 8.0 0.00 0.00 0.00 90 947.0
20260509225134 12 45 0.0 1.6 0.00 0.00 0.00 90 947.0
20260509224635 12 45 0.0 1.6 0.00 0.00 0.00 90 947.0
20260509224141 12 45 1.6 1.6 0.00 0.00 0.00 90 947.0
20260509223634 12 45 0.0 0.0 0.00 0.00 0.00 90 947.0
20260509223135 12 45 0.0 0.0 0.00 0.00 0.00 90 947.0
20260509222635 12 45 0.0 0.0 0.00 0.00 0.00 90 947.0
20260509222152 12 45 0.0 0.0 0.00 0.00 0.00 90 947.0
20260509221635 12 45 0.0 0.0 0.00 0.00 0.00 90 947.0
20260509221135 12 45 0.0 0.0 0.00 0.00 0.00 90 947.0
20260509220634 12 45 0.0 0.0 0.00 0.00 0.00 90 947.0
20260509220134 12 45 0.0 0.0 0.00 0.00 0.00 90 947.0
20260509215638 12 45 0.0 0.0 0.00 0.00 0.00 90 947.0
20260509215134 12 45 0.0 0.0 0.00 0.00 0.00 90 947.0
20260509214634 12 45 0.0 0.0 0.00 0.00 0.00 90 947.0
20260509214134 12 45 0.0 0.0 0.00 0.00 0.00 90 947.0
20260509213649 12 45 0.0 0.0 0.00 0.00 0.00 90 947.0
20260509213134 12 45 0.0 0.0 0.00 0.00 0.00 90 947.0
20260509212635 12 45 0.0 0.0 0.00 0.00 0.00 90 947.0
20260509212134 12 45 0.0 0.0 0.00 0.00 0.00 90 947.0
20260509211634 12 45 0.0 0.0 0.00 0.00 0.00 90 947.0
20260509211134 12 45 0.0 0.0 0.00 0.00 0.00 90 947.0
20260509210634 12 45 0.0 0.0 0.00 0.00 0.00 90 947.0
20260509210135 12 45 0.0 0.0 0.00 0.00 0.00 90 947.0
20260509205635 12 45 0.0 0.0 0.00 0.00 0.00 89 947.0
20260509205143 12 45 0.0 0.0 0.00 0.00 0.00 89 947.0
20260509204634 12 45 0.0 0.0 0.00 0.00 0.00 89 947.0
20260509204135 12 45 0.0 0.0 0.00 0.00 0.00 89 947.0
20260509203635 12 45 0.0 0.0 0.00 0.00 0.00 89 947.0
20260509203154 12 45 0.0 0.0 0.00 0.00 0.00 89 947.0
20260509202635 12 45 0.0 0.0 0.00 0.00 0.00 89 947.0
20260509202135 12 45 0.0 0.0 0.00 0.00 0.00 89 947.0
20260509201634 12 45 0.0 0.0 0.00 0.00 0.00 89 947.0
20260509201135 12 45 0.0 0.0 0.00 0.00 0.00 89 947.0
20260509200642 12 45 0.0 0.0 0.00 0.00 0.00 89 947.0
20260509200135 12 45 0.0 0.0 0.00 0.00 0.00 89 947.0
20260509195633 12 45 0.0 0.0 0.00 0.00 0.00 89 947.0
20260509195134 12 45 0.0 0.0 0.00 0.00 0.00 89 948.0
20260509194651 12 45 0.0 0.0 0.00 0.00 0.00 89 948.0
20260509194134 12 45 0.0 0.0 0.00 0.00 0.00 89 948.0
20260509193635 12 45 0.0 0.0 0.00 0.00 0.00 89 948.0
20260509193135 12 45 0.0 0.0 0.00 0.00 0.00 89 948.0
20260509192634 12 45 0.0 0.0 0.00 0.00 0.00 89 948.0
20260509192138 12 45 0.0 0.0 0.00 0.00 0.00 89 948.0
20260509191634 12 45 0.0 0.0 0.00 0.00 0.00 89 948.0
20260509191134 12 45 0.0 0.0 0.00 0.00 0.00 88 948.0
20260509190634 12 45 0.0 0.0 0.00 0.00 0.00 88 948.0
20260509190146 12 45 0.0 0.0 0.00 0.00 0.00 88 948.0
20260509185634 12 45 0.0 0.0 0.00 0.00 0.00 88 948.0
20260509185134 12 45 0.0 0.0 0.00 0.00 0.00 88 948.0
20260509184634 12 45 0.0 0.0 0.00 0.00 0.00 88 948.0
20260509184154 12 45 0.0 0.0 0.00 0.00 0.00 88 947.0
20260509183634 12 45 0.0 0.0 0.00 0.00 0.00 88 947.0
20260509183134 12 45 0.0 0.0 0.00 0.00 0.00 88 947.0
20260509182635 12 45 0.0 0.0 0.00 0.00 0.00 88 947.0
20260509182135 12 0 0.0 0.0 0.00 0.00 0.00 88 947.0
20260509181641 12 45 0.0 0.0 0.00 0.00 0.00 88 947.0
20260509181134 12 45 0.0 0.0 0.00 0.00 0.00 88 947.0
20260509180635 12 45 0.0 0.0 0.00 0.00 0.00 88 947.0
20260509180149 12 45 0.0 0.0 0.00 0.00 0.00 88 947.0
20260509175648 12 45 0.0 0.0 0.00 0.00 0.00 88 947.0
20260509175133 12 45 0.0 0.0 0.00 0.00 0.00 88 947.0
20260509174634 12 45 0.0 0.0 0.00 0.00 0.00 88 947.0
20260509174135 12 45 0.0 0.0 0.00 0.00 0.00 88 947.0
20260509173634 12 45 0.0 0.0 0.00 0.00 0.00 88 947.0
20260509173134 12 45 0.0 0.0 0.00 0.00 0.00 88 947.0
20260509172634 13 45 0.0 0.0 0.00 0.00 0.00 88 947.0
20260509172135 13 45 0.0 0.0 0.00 0.00 0.00 88 947.0
20260509171644 13 45 0.0 0.0 0.00 0.00 0.00 88 947.0
20260509171141 13 45 0.0 0.0 0.00 0.00 0.00 88 947.0
20260509170634 13 45 0.0 0.0 0.00 0.00 0.00 88 947.0
20260509170134 13 45 0.0 0.0 0.00 0.00 0.00 87 947.0
20260509165653 13 45 0.0 0.0 0.00 0.00 0.00 87 947.0
20260509165220 13 45 0.0 0.0 0.00 0.00 0.00 87 947.0
20260509164635 13 45 0.0 0.0 0.00 0.00 0.00 87 947.0
20260509164133 13 45 0.0 0.0 0.00 0.00 0.00 87 947.0
20260509163635 13 45 0.0 0.0 0.00 0.00 0.00 87 947.0
20260509163141 13 45 0.0 0.0 0.00 0.00 0.00 87 947.0
20260509162637 13 45 0.0 0.0 0.00 0.00 0.00 87 947.0
20260509162133 13 45 0.0 0.0 0.00 0.00 0.00 87 947.0
20260509161634 13 45 0.0 0.0 0.00 0.00 0.00 87 947.0
20260509161151 13 45 0.0 0.0 0.00 0.00 0.00 87 947.0
20260509160717 13 45 0.0 0.0 0.00 0.00 0.00 86 947.0
20260509160134 14 45 0.0 0.0 0.00 0.00 0.00 86 947.0
20260509155633 14 45 0.0 0.0 0.00 0.00 0.00 86 947.0
20260509155135 14 45 0.0 0.0 0.00 0.00 0.00 86 947.0
20260509154638 14 45 0.0 0.0 0.00 0.00 0.00 86 947.0